Pearl River, LA

4:57 AM CST on January 19, 2017 (GMT -0600)
Slidell

Weather History for KASD - December, 2013

Change the Weather History Date:

Sunday, December 1, 2013

  Actual Average (KNEW) Record (KNEW)
Temperature  
Mean Temperature 52 °F -  
Max Temperature 68 °F 66 °F 83 °F (1991)
Min Temperature 37 °F 52 °F 25 °F (1976)
Degree Days  
Heating Degree Days 12    
Growing Degree Days 2 (Base 50)    
Moisture  
Dew Point 44 °F    
Average Humidity 84    
Maximum Humidity 100    
Minimum Humidity 54    
Precipitation  
Precipitation 0.00 in - - ()
Sea Level Pressure  
Sea Level Pressure 30.18 in    
Wind  
Wind Speed 2 mph (North)    
Max Wind Speed 6 mph    
Max Gust Speed -    
Visibility 6 miles    
Events Fog    
Averages and records for this station are not official NWS values.
T = Trace of Precipitation, MM = Missing Value Source: NWS Daily Summary

Daily Weather History Graph

Daily Weather History Graph

Search for Another Location

Airport or City:

Trip Planner

Search our weather history database for the weather conditions in past years. The results will help you decide how hot, cold, wet, or windy it might be!

Date:

Astronomy

Dec. 01, 2013 Rise Set
Actual Time 6:38 AM CST 4:58 PM CST
Civil Twilight 6:12 AM CST 5:24 PM CST
Nautical Twilight 5:42 AM CST 5:54 PM CST
Astronomical Twilight 5:13 AM CST 6:23 PM CST
Moon 5:01 AM CST (12/1) 4:04 PM CST (12/1)
Length of Visible Light 11h 12m
Length of Day
10h 19m
Waning Crescent, 2% of the Moon is Illuminated
Dec 1
Waning Crescent
Dec 2
New
Dec 9
First Quarter
Dec 17
Full
Dec 25
Last Quarter

Hourly Weather History & Observations

Time (CST) Temp. Windchill Dew Point Humidity Pressure Visibility Wind Dir Wind Speed Gust Speed Precip Events Conditions
12:14 AM 37.4 °F 34.9 °F 37.4 °F 100% 30.26 in 0.2 mi North 3.5 mph - N/A Fog Fog
12:42 AM 37.4 °F - 37.4 °F 100% 30.26 in 2.0 mi Calm Calm - N/A   Overcast
12:50 AM 37.4 °F - 35.6 °F 93% 30.26 in 4.0 mi Calm Calm - N/A   Overcast
12:53 AM 37.9 °F - 36.0 °F 93% 30.26 in 4.0 mi Calm Calm - N/A   Overcast
1:14 AM 37.4 °F - 35.6 °F 93% 30.25 in 1.8 mi Calm Calm - N/A   Overcast
1:23 AM 37.4 °F - 37.4 °F 100% 30.25 in 0.5 mi Calm Calm - N/A Fog Fog
1:53 AM 37.9 °F - 37.0 °F 97% 30.25 in 0.2 mi Calm Calm - N/A Fog Fog
2:53 AM 37.0 °F 34.5 °F 36.0 °F 96% 30.24 in 0.5 mi North 3.5 mph - N/A Fog Fog
3:09 AM 37.4 °F - 37.4 °F 100% 30.25 in 0.8 mi Calm Calm - N/A   Overcast
3:17 AM 39.2 °F 37.0 °F 37.4 °F 93% 30.25 in 1.5 mi North 3.5 mph - N/A   Overcast
3:29 AM 41.0 °F 38.0 °F 39.2 °F 93% 30.24 in 2.5 mi North 4.6 mph - N/A   Overcast
3:37 AM 41.0 °F 38.0 °F 39.2 °F 93% 30.24 in 4.0 mi North 4.6 mph - N/A   Overcast
3:44 AM 41.0 °F 37.1 °F 39.2 °F 93% 30.24 in 5.0 mi North 5.8 mph - N/A   Overcast
3:53 AM 42.1 °F 39.2 °F 39.9 °F 92% 30.25 in 5.0 mi North 4.6 mph - N/A   Overcast
4:53 AM 42.1 °F 40.2 °F 39.9 °F 92% 30.24 in 6.0 mi North 3.5 mph - N/A   Mostly Cloudy
5:53 AM 44.1 °F 42.5 °F 42.1 °F 93% 30.25 in 6.0 mi North 3.5 mph - N/A   Overcast
6:53 AM 42.1 °F 40.2 °F 39.9 °F 92% 30.27 in 4.0 mi NNE 3.5 mph - N/A   Partly Cloudy
7:53 AM 45.0 °F - 43.0 °F 93% 30.27 in 4.0 mi Calm Calm - N/A   Partly Cloudy
8:53 AM 53.1 °F - 48.0 °F 83% 30.26 in 7.0 mi Calm Calm - N/A   Partly Cloudy
9:53 AM 61.0 °F - 50.0 °F 67% 30.24 in 10.0 mi Calm Calm - N/A   Partly Cloudy
10:53 AM 64.9 °F - 48.9 °F 56% 30.21 in 10.0 mi South 3.5 mph - N/A   Scattered Clouds
11:53 AM 66.0 °F - 50.0 °F 56% 30.17 in 10.0 mi Variable 3.5 mph - N/A   Partly Cloudy
12:53 PM 68.0 °F - 51.1 °F 55% 30.14 in 10.0 mi Variable 3.5 mph - N/A   Partly Cloudy
1:53 PM 66.9 °F - 50.0 °F 54% 30.11 in 10.0 mi SSW 3.5 mph - N/A   Clear
2:53 PM 66.0 °F - 50.0 °F 56% 30.09 in 10.0 mi Variable 3.5 mph - N/A   Clear
3:53 PM 64.0 °F - 50.0 °F 60% 30.08 in 10.0 mi SW 3.5 mph - N/A   Clear
4:53 PM 60.1 °F - 52.0 °F 75% 30.08 in 10.0 mi Calm Calm - N/A   Clear
5:53 PM 54.0 °F - 51.1 °F 90% 30.07 in 10.0 mi Calm Calm - N/A   Clear
6:53 PM 52.0 °F - 48.0 °F 86% 30.07 in 10.0 mi Calm Calm - N/A   Clear
7:53 PM 53.1 °F - 48.9 °F 86% 30.06 in 10.0 mi South 3.5 mph - N/A   Clear
8:53 PM 55.0 °F - 48.9 °F 80% 30.06 in 10.0 mi Calm Calm - N/A   Clear
9:53 PM 55.0 °F - 50.0 °F 83% 30.05 in 10.0 mi South 3.5 mph - N/A   Clear
10:53 PM 55.0 °F - 50.0 °F 83% 30.04 in 10.0 mi South 3.5 mph - N/A   Clear
11:53 PM 55.9 °F - 51.1 °F 84% 30.02 in 10.0 mi Calm Calm - N/A   Clear